Tracking 18987 objects as of 25-Feb-2018
HD Live streaming from Space Station
objects crossing your sky now

COSMOS 942

Track COSMOS 942 now!
10-day predictions
COSMOS 942 is classified as:


NORAD ID: 10288
Int'l Code: 1977-079D
Perigee: 1,469.0 km
Apogee: 1,539.8 km
Inclination: 74.0 °
Period: 115.9 minutes
Semi major axis: 7875 km
RCS: 0.7109 m2 (medium)
Launch date: August 24, 1977
Source: Commonwealth of Independent States (former USSR) (CIS)
Launch site: PLESETSK MISSILE AND SPACE COMPLEX (PKMTR)
aabbcc
Your satellite tracking list
Your tracking list is empty




NASA's NSSDC Master Catalog

Two Line Element Set (TLE):
1 10288U 77079D   18055.21763334 -.00000021 +00000-0 -38459-4 0  9995
2 10288 074.0271 319.1590 0044966 324.3636 193.8755 12.42215395819444
Source of the keplerian elements: AFSPC